Wind_Speed
28 30 31 30 30 29 28 27 26 24 22 19 18 18 18 18 17 15 13 12 12 12 13 13 13 13 13 13 13 13 12 12 12 12 12 12 12 13 14 14 14 15 15 15
27 28 30 31 32 31 30 29 28 26 24 23 21 20 19 18 17 17 15 15 16 15 15 16 16 16 16 15 15 15 15 14 14 14 13 13 14 15 15 16 16 17 17 17
28 27 28 31 31 31 31 30 29 28 26 24 24 22 20 20 19 19 19 19 19 18 18 18 18 18 18 18 18 18 18 18 16 16 16 16 17 18 18 18 19 19 20 20
29 29 30 29 29 30 31 31 30 29 27 26 25 24 23 22 22 22 22 21 20 20 20 21 21 21 21 21 21 21 20 19 19 19 20 20 21 21 21 22 22 22 22 22
31 31 31 29 28 28 29 30 30 29 28 27 27 27 26 24 23 23 23 23 23 23 23 23 23 24 24 24 24 22 22 22 22 23 23 24 24 24 24 24 24 24 24 25
31 31 31 28 28 28 29 29 29 29 29 28 29 28 27 27 26 26 26 26 25 24 25 26 26 26 26 27 27 25 25 25 25 26 26 26 27 27 27 27 27 27 27 27
32 32 31 29 28 28 29 28 29 29 29 29 30 31 31 30 28 27 27 26 27 27 27 28 28 28 29 29 29 29 28 28 28 29 29 29 30 30 30 30 30 31 30 30
32 33 32 30 30 29 29 29 29 29 30 30 30 31 31 30 29 28 28 28 29 29 30 30 30 31 31 31 31 31 30 30 31 31 31 32 32 32 32 33 33 33 32 32
32 32 31 30 30 30 30 31 30 30 30 31 31 31 31 31 31 31 31 30 30 31 32 32 33 33 32 32 32 32 32 33 33 34 34 33 33 33 33 33 33 33 31 31
32 31 31 30 31 31 31 31 32 32 32 32 33 33 33 33 33 32 32 32 32 33 33 34 34 34 34 33 32 33 33 33 34 35 35 34 33 33 33 32 32 33 31 31
31 31 31 31 31 31 30 30 31 32 33 34 35 34 35 35 34 33 33 33 34 34 34 35 35 35 35 35 35 33 33 33 33 34 34 34 33 33 33 33 34 34 33 33
31 31 31 32 32 31 31 31 31 31 32 34 34 34 35 35 34 34 34 35 35 35 35 36 35 35 35 35 35 34 34 33 33 33 33 33 33 33 34 35 35 35 34 33
31 31 31 31 31 31 31 30 31 32 33 34 34 35 36 37 37 37 36 36 36 36 36 36 36 35 34 34 35 35 35 34 34 34 34 34 34 34 35 35 35 34 34 35
30 30 30 31 31 32 32 31 32 32 33 33 34 35 37 38 37 38 38 37 36 36 36 36 35 35 35 36 36 36 36 36 36 36 36 35 35 35 34 34 34 33 34 35
29 30 31 31 32 32 32 32 32 32 32 33 34 35 36 38 38 38 37 36 36 36 36 36 36 35 36 36 37 37 37 37 37 37 36 35 35 35 35 35 34 34 34 35
29 30 31 31 32 32 32 32 32 33 33 33 34 35 36 37 37 37 37 36 37 37 37 36 36 36 36 36 36 36 37 37 36 36 36 36 36 35 34 34 35 35 35 35
29 29 30 31 32 32 33 32 32 32 32 33 34 35 35 35 35 35 35 35 36 36 36 36 36 36 36 35 35 36 36 36 35 35 36 36 36 35 35 35 35 35 35 36
28 29 29 29 31 32 32 32 31 31 32 32 33 34 34 34 34 34 34 35 36 36 36 36 35 35 35 34 34 34 34 34 35 35 35 35 35 36 35 34 35 35 35 36
27 27 27 27 29 30 30 31 31 31 31 32 33 32 32 32 33 33 33 34 35 34 34 34 34 34 33 33 33 33 33 34 34 34 34 35 36 36 35 34 35 36 36 36
25 25 25 26 26 28 28 29 30 31 30 31 31 30 30 30 31 32 32 32 32 33 33 33 33 33 32 32 32 32 32 32 33 33 34 34 34 35 34 33 34 34 34 35
22 22 23 23 24 25 27 27 28 29 30 30 29 28 29 29 29 30 30 30 30 30 30 30 31 31 30 30 30 30 31 31 31 32 32 32 33 33 33 33 33 34 34 35
21 21 21 22 22 23 24 25 25 26 27 27 27 27 27 26 27 28 28 26 26 27 27 27 27 28 28 28 28 28 29 29 29 30 31 32 32 32 33 33 33 33 34 34
19 20 20 21 21 22 22 23 24 24 24 25 24 24 23 23 24 25 24 24 24 24 23 24 24 25 26 26 27 27 28 29 29 30 30 30 30 31 32 32 32 32 33 33
17 18 19 19 20 20 21 21 21 21 21 22 22 22 22 23 23 24 24 22 21 21 22 22 22 23 24 25 25 27 27 27 27 27 28 29 29 30 31 32 31 32 32 33
16 17 17 18 18 18 19 19 19 19 20 20 20 21 21 22 22 21 21 21 20 20 20 21 22 22 23 23 24 24 25 25 26 27 28 28 29 30 30 30 30 30 31 31
14 14 15 16 16 17 17 17 18 18 18 18 19 19 19 19 19 20 20 20 19 20 20 20 21 21 22 22 22 23 24 25 25 26 27 28 29 28 28 28 29 29 30 31
13 14 15 15 16 16 16 16 17 17 17 17 18 18 18 18 18 18 18 18 19 20 20 20 20 20 21 22 22 23 24 25 26 26 27 28 28 27 27 28 29 30 31 31
Wind_Direction
233 231 232 235 238 239 242 246 252 258 261 262 262 265 267 264 262 264 266 267 263 264 265 265 267 270 274 278 279 280 275 275 281 286 286 293 297 298 300 302 307 308 309 311
235 233 233 235 238 239 241 245 251 256 261 261 260 261 264 259 258 260 264 266 265 264 265 266 266 268 271 273 273 274 274 276 281 285 288 293 299 299 304 304 304 305 305 308
238 237 238 238 238 242 244 246 250 256 260 260 259 259 260 257 258 264 266 265 264 263 263 263 264 265 267 268 269 272 274 275 279 284 288 293 295 297 299 301 303 305 304 304
241 241 242 241 241 244 247 248 251 255 256 256 257 257 258 260 264 268 268 265 263 261 264 264 265 266 266 266 265 268 272 274 276 281 283 286 288 291 293 294 300 301 301 299
244 246 245 244 245 247 249 249 250 252 254 254 256 257 258 262 265 269 267 265 265 265 266 265 265 266 266 267 267 269 268 268 270 274 277 280 284 286 289 291 293 297 299 300
243 246 247 247 247 248 249 249 249 252 254 255 256 256 257 260 264 267 268 268 267 267 267 269 268 268 267 268 269 268 267 267 268 270 274 277 280 282 285 287 289 292 294 296
246 248 250 249 249 249 249 250 250 252 254 254 255 257 258 260 264 265 266 267 267 268 270 271 271 269 268 269 269 268 268 270 272 271 272 274 277 279 282 283 285 288 291 293
245 247 250 250 251 250 251 250 250 251 253 253 255 258 260 262 263 264 264 266 268 269 270 272 273 271 269 269 269 267 267 269 271 273 274 276 277 279 281 284 286 287 288 291
245 247 250 252 253 252 251 250 249 251 253 255 257 259 260 260 263 266 265 267 270 272 272 273 275 273 269 268 267 267 269 268 270 273 275 278 279 280 282 284 286 289 288 289
245 247 250 253 254 255 253 252 252 252 253 255 257 259 260 261 263 264 265 267 270 272 273 273 273 272 270 268 266 267 269 269 271 272 275 277 279 280 282 285 287 288 289 289
244 247 249 251 254 256 257 257 257 257 257 257 256 258 260 261 263 265 268 270 270 271 273 272 270 271 270 269 269 270 269 271 274 275 276 277 278 280 281 283 285 287 287 288
246 248 250 252 253 254 257 258 258 259 259 260 261 262 263 263 263 266 268 270 271 271 272 271 270 269 269 268 269 270 271 272 274 275 275 276 277 280 282 284 284 284 285 287
247 248 250 252 255 256 259 259 258 259 260 262 264 265 265 265 266 268 270 270 271 271 272 271 270 269 268 269 270 271 272 272 273 273 274 275 276 280 281 281 282 283 285 287
248 250 252 254 257 259 260 260 261 262 264 265 266 267 268 267 268 270 271 271 271 272 273 272 271 271 270 270 269 269 269 270 270 272 273 275 277 279 282 283 283 283 285 287
248 251 253 255 257 259 259 261 263 265 266 269 269 270 269 269 270 269 270 271 272 272 273 272 271 270 270 269 268 268 268 268 269 271 272 273 275 277 280 282 283 284 286 288
250 252 254 256 257 258 260 262 265 266 268 270 271 273 273 273 272 272 272 271 273 272 272 271 270 269 270 270 269 268 268 268 267 268 270 272 274 276 277 279 281 283 286 287
253 255 256 257 257 258 261 264 267 268 270 272 273 274 274 274 274 273 272 272 272 271 271 271 270 271 271 271 269 268 268 269 269 270 271 273 274 273 275 277 280 282 284 286
255 256 258 258 259 261 263 267 269 271 272 274 276 276 275 274 274 273 272 271 271 270 271 272 271 270 269 268 268 268 268 268 269 271 272 273 273 273 274 277 280 281 284 285
256 258 260 261 262 264 266 268 270 273 274 275 276 275 273 274 275 276 275 273 271 271 271 271 270 268 267 266 266 267 268 270 270 270 271 273 274 275 276 278 280 283 284 285
259 261 263 265 267 268 269 271 272 272 273 274 275 276 277 277 277 278 277 276 276 274 272 271 269 268 266 264 265 266 268 269 269 270 272 274 276 277 278 279 282 284 285 286
260 263 264 268 271 271 273 275 276 275 275 276 276 277 278 278 278 278 278 278 276 274 273 271 268 266 266 266 265 266 267 269 270 271 272 274 277 279 279 280 282 283 285 286
262 266 267 270 274 275 275 277 278 278 277 280 278 278 280 279 278 278 280 278 275 273 272 270 268 267 268 267 266 267 268 270 271 273 274 275 277 279 278 279 281 283 285 287
266 269 272 274 276 277 278 280 281 281 280 282 284 284 283 281 280 279 281 278 277 276 275 273 271 270 270 269 268 269 269 270 272 274 275 276 277 279 280 280 281 283 285 286
269 273 276 278 279 280 283 284 283 283 284 285 285 284 283 280 278 278 280 279 277 276 276 276 274 271 270 271 270 270 270 271 273 274 277 277 278 279 281 281 281 284 286 288
277 282 285 284 282 282 285 286 286 286 286 286 287 286 285 282 279 277 277 277 277 276 275 276 275 274 272 272 271 271 272 274 274 276 277 278 279 280 282 282 283 286 289 290
281 286 290 290 287 286 289 290 288 286 286 288 289 290 289 287 284 280 279 279 279 278 279 279 277 275 275 274 275 276 277 277 278 280 280 281 282 283 283 282 284 287 289 290
285 290 293 294 292 290 291 292 292 290 290 289 290 291 291 289 286 285 283 280 279 278 279 279 278 278 278 279 280 280 280 281 282 283 284 284 284 283 282 284 286 289 291 292
Height
5860 5864 5867 5869 5872 5875 5877 5879 5882 5884 5886 5888 5889 5890 5890 5890 5891 5891 5892 5892 5892 5893 5893 5893 5892 5892 5891 5890 5890 5889 5888 5887 5886 5886 5885 5884 5883 5882 5881 5880 5879 5878 5876 5874
5855 5858 5861 5863 5866 5869 5871 5874 5876 5878 5881 5883 5883 5885 5885 5886 5887 5888 5888 5888 5889 5889 5889 5889 5888 5887 5887 5887 5886 5885 5885 5884 5884 5882 5881 5881 5879 5878 5877 5876 5875 5874 5872 5870
5849 5852 5854 5857 5860 5863 5865 5868 5871 5872 5876 5876 5878 5879 5880 5881 5882 5883 5883 5884 5884 5884 5884 5884 5883 5882 5882 5882 5881 5881 5881 5880 5879 5878 5877 5877 5876 5875 5874 5872 5871 5870 5868 5866
5842 5846 5848 5853 5854 5856 5859 5862 5864 5866 5868 5870 5872 5874 5875 5876 5877 5877 5877 5878 5878 5878 5878 5877 5877 5877 5876 5876 5876 5875 5875 5875 5876 5875 5874 5873 5872 5871 5869 5868 5866 5865 5863 5861
5836 5838 5841 5845 5847 5850 5853 5855 5857 5860 5862 5864 5865 5867 5868 5869 5870 5871 5871 5871 5871 5871 5871 5871 5870 5870 5870 5870 5870 5870 5870 5870 5870 5869 5868 5868 5866 5865 5863 5863 5861 5859 5857 5855
5829 5831 5834 5839 5841 5843 5846 5848 5851 5853 5855 5857 5858 5860 5862 5862 5863 5863 5864 5864 5864 5864 5864 5864 5864 5863 5863 5863 5863 5863 5863 5863 5862 5862 5861 5861 5860 5859 5858 5856 5855 5853 5851 5849
5822 5824 5827 5831 5833 5836 5840 5843 5844 5846 5848 5849 5851 5852 5854 5854 5855 5856 5856 5856 5857 5857 5856 5856 5856 5855 5855 5855 5855 5855 5855 5855 5855 5854 5854 5853 5852 5851 5850 5849 5847 5846 5844 5842
5815 5818 5822 5824 5826 5829 5831 5834 5836 5837 5839 5841 5842 5843 5845 5846 5847 5847 5848 5848 5849 5849 5848 5847 5847 5846 5845 5845 5845 5846 5846 5846 5846 5846 5845 5844 5843 5842 5841 5840 5839 5837 5835 5833
5808 5812 5814 5816 5818 5821 5823 5825 5827 5829 5831 5833 5834 5835 5836 5837 5838 5839 5839 5840 5840 5839 5839 5838 5837 5836 5836 5836 5836 5837 5837 5837 5837 5837 5836 5835 5834 5832 5831 5831 5829 5828 5826 5824
5801 5803 5806 5808 5810 5812 5814 5816 5819 5821 5822 5824 5825 5826 5827 5828 5829 5829 5830 5830 5830 5830 5829 5828 5827 5826 5826 5826 5826 5827 5827 5828 5828 5827 5826 5825 5824 5823 5823 5821 5820 5819 5817 5815
5793 5796 5798 5800 5802 5804 5806 5808 5810 5811 5813 5814 5815 5816 5817 5818 5819 5819 5819 5820 5819 5819 5818 5818 5816 5815 5815 5815 5816 5816 5817 5817 5817 5817 5817 5816 5815 5814 5813 5812 5811 5809 5808 5806
5786 5788 5791 5793 5795 5796 5798 5800 5801 5802 5803 5804 5805 5806 5807 5807 5808 5808 5808 5808 5808 5808 5807 5807 5806 5805 5805 5804 5805 5806 5806 5807 5807 5807 5807 5806 5805 5805 5803 5802 5801 5799 5798 5797
5777 5780 5783 5785 5787 5789 5790 5791 5793 5794 5794 5795 5795 5796 5796 5796 5797 5797 5797 5796 5796 5796 5796 5795 5795 5794 5794 5794 5795 5795 5795 5796 5796 5796 5796 5796 5795 5794 5793 5792 5790 5789 5787 5786
5770 5772 5775 5777 5779 5780 5781 5783 5784 5784 5784 5784 5785 5785 5785 5785 5785 5785 5785 5785 5785 5784 5784 5784 5783 5783 5783 5783 5783 5784 5784 5785 5785 5786 5785 5785 5784 5783 5782 5781 5780 5779 5777 5776
5762 5764 5767 5768 5769 5771 5772 5773 5774 5774 5774 5774 5774 5774 5773 5773 5773 5773 5773 5773 5773 5773 5773 5772 5772 5772 5771 5771 5772 5772 5773 5774 5774 5774 5774 5774 5773 5773 5772 5771 5770 5769 5767 5765
5754 5756 5758 5759 5760 5761 5762 5763 5764 5764 5764 5764 5764 5763 5762 5762 5762 5762 5762 5761 5761 5761 5761 5761 5760 5760 5760 5760 5760 5761 5762 5762 5762 5763 5763 5763 5762 5762 5761 5760 5759 5758 5756 5755
5746 5748 5749 5750 5751 5752 5753 5753 5753 5754 5754 5754 5753 5753 5752 5751 5751 5751 5750 5750 5749 5749 5749 5749 5749 5749 5749 5749 5750 5750 5751 5751 5751 5752 5752 5752 5751 5751 5750 5750 5748 5747 5745 5744
5738 5739 5740 5741 5742 5743 5743 5744 5744 5744 5744 5744 5743 5742 5742 5741 5741 5740 5739 5739 5739 5739 5739 5739 5739 5739 5738 5739 5739 5740 5741 5741 5741 5741 5741 5741 5741 5740 5739 5739 5737 5736 5735 5733
5730 5731 5732 5732 5733 5734 5735 5735 5735 5735 5734 5734 5733 5733 5732 5731 5730 5729 5728 5728 5728 5729 5729 5728 5728 5728 5728 5728 5729 5730 5730 5731 5731 5731 5731 5730 5730 5729 5728 5727 5727 5725 5724 5722
5723 5724 5725 5725 5725 5726 5726 5726 5726 5726 5725 5724 5723 5723 5722 5721 5720 5719 5718 5718 5718 5718 5718 5718 5718 5718 5718 5718 5719 5720 5720 5720 5720 5720 5721 5720 5720 5719 5718 5717 5716 5714 5713 5711
5717 5718 5718 5718 5718 5718 5718 5717 5717 5716 5716 5715 5714 5713 5713 5712 5711 5710 5709 5708 5708 5707 5707 5707 5708 5708 5708 5709 5709 5710 5710 5710 5710 5710 5711 5711 5710 5709 5708 5707 5705 5704 5702 5700
5711 5712 5712 5712 5712 5711 5710 5709 5709 5708 5707 5706 5705 5705 5704 5704 5703 5702 5701 5700 5699 5697 5697 5697 5698 5699 5699 5700 5700 5700 5701 5701 5701 5701 5701 5701 5700 5699 5697 5696 5695 5693 5691 5690
5706 5706 5706 5705 5705 5704 5703 5702 5701 5701 5700 5699 5698 5697 5696 5696 5695 5695 5694 5692 5691 5690 5690 5690 5691 5691 5691 5691 5692 5692 5692 5692 5692 5692 5691 5690 5689 5689 5687 5686 5685 5683 5682 5680
5701 5700 5700 5699 5698 5697 5697 5695 5694 5694 5693 5692 5691 5690 5689 5689 5688 5688 5686 5685 5685 5684 5684 5684 5684 5684 5684 5684 5684 5683 5683 5684 5683 5683 5682 5681 5680 5679 5678 5676 5675 5673 5672 5669
5696 5696 5695 5694 5693 5692 5691 5689 5688 5687 5686 5685 5684 5683 5682 5682 5681 5681 5680 5680 5679 5679 5679 5678 5677 5677 5677 5676 5676 5676 5676 5676 5675 5674 5673 5672 5671 5669 5668 5667 5665 5664 5662 5660
5692 5691 5690 5689 5688 5687 5686 5684 5683 5682 5681 5680 5678 5677 5676 5675 5674 5674 5673 5673 5673 5672 5672 5671 5671 5670 5670 5670 5670 5669 5669 5668 5667 5666 5665 5663 5662 5660 5658 5657 5656 5654 5653 5650
5688 5687 5686 5685 5683 5682 5680 5679 5678 5677 5675 5674 5673 5672 5670 5669 5668 5668 5667 5667 5667 5666 5666 5665 5664 5664 5663 5663 5662 5662 5661 5660 5659 5658 5656 5655 5653 5652 5650 5649 5647 5645 5643 5641